This is the latest recevied weather packets stored in our database for station/object WB5LJZ-9. If no packets are shown the sender has not sent any weather packets the latest 10 day(s).
| Time | Temp. | Humidity | Pressure | Rain* | Wind** | Luminosity | Snow |
|---|---|---|---|---|---|---|---|
| 1787699621 | - | - | 738.1 mmHg | 0 in | 7 mph, 351° | - | - |
| 1787698904 | - | - | 738.1 mmHg | 0 in | 6 mph, 341° | - | - |
| 1787698187 | - | - | 738.1 mmHg | 0 in | 7 mph, 310° | - | - |
| 1787697464 | - | - | 738.1 mmHg | 0 in | 5 mph, 247° | - | - |
| 1787696747 | - | - | 738.1 mmHg | 0 in | 7 mph, 320° | - | - |
| 1787696030 | - | - | 738.1 mmHg | 0 in | 9 mph, 316° | - | - |
| 1787695309 | - | - | 738.1 mmHg | 0 in | 7 mph, 276° | - | - |
| 1787694592 | - | - | 738.8 mmHg | 0 in | 8 mph, 356° | - | - |
| 1787693870 | - | - | 738.8 mmHg | 0 in | 8 mph, 312° | - | - |
| 1787693134 | - | - | 738.8 mmHg | 0 in | 6 mph, 351° | - | - |
| 1787692412 | - | - | 738.8 mmHg | 0 in | 6 mph, 329° | - | - |
| 1787691695 | - | - | 738.8 mmHg | 0 in | 7 mph, 296° | - | - |
| 1787690968 | - | - | 738.8 mmHg | 0 in | 7 mph, 318° | - | - |
| 1787690246 | - | - | 738.8 mmHg | 0 in | 8 mph, 275° | - | - |
| 1787689529 | - | - | 739.6 mmHg | 0 in | 5 mph, 344° | - | - |
| 1787688807 | - | - | 739.6 mmHg | 0 in | 6 mph, 356° | - | - |
| 1787688081 | - | - | 739.6 mmHg | 0 in | 5 mph, 351° | - | - |
| 1787687358 | - | - | 739.6 mmHg | 0 in | 7 mph, 318° | - | - |
| 1787686636 | - | - | 739.6 mmHg | 0 in | 6 mph, 268° | - | - |
| 1787685914 | - | - | 739.6 mmHg | 0 in | 3 mph, 234° | - | - |
| 1787685197 | - | - | 739.6 mmHg | 0 in | 7 mph, 274° | - | - |
| 1787684470 | - | - | 740.3 mmHg | 0 in | 8 mph, 262° | - | - |
| 1787683748 | - | - | 740.3 mmHg | 0 in | 4 mph, 259° | - | - |
| 1787683021 | - | - | 740.3 mmHg | 0 in | 4 mph, 290° | - | - |
| 1787682298 | - | - | 740.3 mmHg | 0 in | 5 mph, 338° | - | - |
* Rain latest hour (hover to see other rain measurements)
** Current wind speed in m/s (hover to see current wind gust speed)